Flag for U.S.A. Weather past 2 weeks in Santa Barbara, California, U.S.A.

Now
58 °F

Clear.


Feels Like: 58 °F
Forecast: 60 / 79 °F
Wind: 3 mph from Northwest

Location: Santa Barbara Municipal Airport

Current Time: Aug 29, 2014 at 6:07:22 AM

Latest Report: Aug 29, 2014 at 4:53 AM


Visibility: 10 mi

Pressure: 29.85 "Hg

Humidity: 90%

Dew point: 55 °F

Location of Santa BarbaraLocation

Historic Weather in Santa Barbara — Graph

°F

Santa Barbara temperature yesterday

Maximum temperature yesterday: 82 °F (at 12:53 PM)
Minimum temperature yesterday: 61 °F (at 6:53 AM)
Average temperature yesterday: 71 °F

Past Weeks' High & Low Weather Summary

 TemperatureHumidityPressure
High83 °F (Aug 27, 4:53 PM)100% (Aug 22, 8:00 AM)30.03 "Hg (Aug 22, 8:00 AM)
Low56 °F (Aug 25, 3:53 AM)33% (Aug 27, 4:53 PM)29.77 "Hg (Aug 18, 6:53 PM)
Average67 °F75%29.92 "Hg
* Reported Aug 14 4:53 AM — Aug 29 4:53 AM, Santa Barbara, Weather by CustomWeather, © 2014

Note: Actual official high and low records may vary slightly from our data, if they occured in-between our weather recording intervals... More about our weather records

Advertising

Santa Barbara weather history for previous 24 hours

 ConditionsComfort  
Time TempWeatherWind HumidityBarometerVisibility
4:53 AM
Aug 29
58 °FClear.3 mph90%29.85 "Hg10 mi
3:53 AM64 °FClear.5 mph81%29.84 "Hg10 mi
2:53 AM64 °FClear.7 mph87%29.84 "Hg9 mi
1:53 AM65 °FClear.No wind81%29.84 "Hg9 mi
12:53 AM65 °FClear.5 mph81%29.85 "Hg9 mi
11:53 PM
Aug 28
66 °FClear.6 mph81%29.85 "Hg9 mi
10:53 PM67 °FClear.6 mph85%29.87 "Hg7 mi
9:53 PM68 °FClear.7 mph76%29.88 "Hg7 mi
8:53 PM70 °FClear.No wind68%29.87 "Hg10 mi
7:53 PM71 °FSunny.5 mph66%29.87 "Hg10 mi
6:53 PM75 °FSunny.10 mph54%29.86 "Hg10 mi
5:53 PM78 °FSunny.12 mph50%29.87 "Hg10 mi
4:53 PM75 °FSunny.12 mph58%29.89 "Hg10 mi
3:53 PM77 °FSunny.12 mph54%29.91 "Hg10 mi
2:53 PM81 °FSunny.10 mph47%29.93 "Hg10 mi
1:53 PM79 °FSunny.9 mph56%29.95 "Hg10 mi
12:53 PM82 °FSunny.5 mph44%29.96 "Hg10 mi
11:53 AM79 °FSunny.7 mph52%29.99 "Hg10 mi
10:53 AM76 °FSunny.8 mph62%30.00 "Hg9 mi
9:53 AM73 °FSunny.7 mph71%30.00 "Hg10 mi
8:53 AM71 °FSunny.6 mph76%30.00 "Hg8 mi
7:53 AM69 °FSunny.No wind68%29.99 "Hg10 mi
6:53 AM61 °FClear.No wind81%29.99 "Hg10 mi
Weather by CustomWeather, © 2014

See weather overviewHow to use our weather pages